When you browse on this site, cookies collect data to enhance your experience and personalize the content and advertising you see.
Visit our Privacy Policy to learn more. By continuing to use the site, you agree to this use of cookies and data.
  • Em Portugal
  • Lista de países
  • Para 7 dias
  • Temperatura da água
  • Mapas de satélite
  • Mapa do tempo
  • Widgets de tempo
  • user-avatar
    Iniciar Sessão

    Previsão horária em Vinnitsa

    Hoje, 19 Abril, Sexta-feira

    Tempo Temperatura Precipitação Vento Pressão Humidade
    00:00 +8°C° 0.3 mm 2 m/s 741 mmHg 67%
    01:00 +8°C° 0.3 mm 2 m/s 741 mmHg 72%
    02:00 +8°C° 0 mm 1 m/s 740 mmHg 76%
    03:00 +6°C° 0.1 mm 2 m/s 740 mmHg 78%
    04:00 +6°C° 0.1 mm 2 m/s 740 mmHg 80%
    05:00 +5°C° 0.1 mm 3 m/s 740 mmHg 82%
    06:00 +7°C° 0 mm 3 m/s 740 mmHg 79%
    07:00 +7°C° 0 mm 4 m/s 741 mmHg 75%
    08:00 +8°C° 0 mm 5 m/s 741 mmHg 70%
    09:00 +9°C° 0.2 mm 5 m/s 742 mmHg 63%
    10:00 +10°C° 0.2 mm 6 m/s 742 mmHg 55%
    11:00 +11°C° 0.2 mm 6 m/s 742 mmHg 48%
    12:00 +11°C° 0.2 mm 6 m/s 742 mmHg 47%
    13:00 +11°C° 0.2 mm 6 m/s 743 mmHg 46%
    14:00 +11°C° 0.2 mm 6 m/s 743 mmHg 46%
    15:00 +11°C° 0.2 mm 6 m/s 743 mmHg 47%
    16:00 +12°C° 0.2 mm 5 m/s 743 mmHg 49%
    17:00 +10°C° 0.2 mm 5 m/s 743 mmHg 50%
    18:00 +10°C° 0.1 mm 4 m/s 743 mmHg 56%
    19:00 +8°C° 0.1 mm 4 m/s 744 mmHg 61%
    20:00 +7°C° 0.1 mm 3 m/s 744 mmHg 67%
    21:00 +7°C° 0 mm 2 m/s 744 mmHg 68%
    22:00 +6°C° 0 mm 2 m/s 744 mmHg 70%
    23:00 +5°C° 0 mm 2 m/s 745 mmHg 72%

    Amanhã, 20 Abril, Sábado

    Tempo Temperatura Precipitação Vento Pressão Humidade
    00:00 +6°C° 0 mm 1 m/s 745 mmHg 72%
    01:00 +6°C° 0 mm 1 m/s 745 mmHg 73%
    02:00 +5°C° 0 mm 1 m/s 745 mmHg 74%
    03:00 +5°C° 0 mm 1 m/s 744 mmHg 74%
    04:00 +5°C° 0 mm 1 m/s 744 mmHg 74%
    05:00 +3°C° 0 mm 2 m/s 744 mmHg 75%
    06:00 +5°C° 0 mm 2 m/s 744 mmHg 69%
    07:00 +8°C° 0 mm 1 m/s 745 mmHg 63%
    08:00 +9°C° 0 mm 1 m/s 745 mmHg 57%
    09:00 +9°C° 0 mm 2 m/s 745 mmHg 52%
    10:00 +10°C° 0 mm 2 m/s 745 mmHg 47%
    11:00 +12°C° 0 mm 2 m/s 745 mmHg 41%
    12:00 +12°C° 0 mm 2 m/s 744 mmHg 41%
    13:00 +12°C° 0 mm 1 m/s 744 mmHg 42%
    14:00 +13°C° 0 mm 1 m/s 744 mmHg 42%
    15:00 +12°C° 0 mm 1 m/s 744 mmHg 44%
    16:00 +12°C° 0 mm 1 m/s 743 mmHg 46%
    17:00 +12°C° 0 mm 1 m/s 743 mmHg 48%
    18:00 +11°C° 0 mm 1 m/s 743 mmHg 51%
    19:00 +10°C° 0 mm 1 m/s 743 mmHg 54%
    20:00 +9°C° 0 mm 1 m/s 743 mmHg 56%
    21:00 +9°C° 0 mm 1 m/s 742 mmHg 58%
    22:00 +8°C° 0 mm 2 m/s 742 mmHg 59%
    23:00 +8°C° 0 mm 2 m/s 742 mmHg 60%

    Depois de amanhã, 21 Abril, Domingo

    Tempo Temperatura Precipitação Vento Pressão Humidade
    00:00 +8°C° 0 mm 2 m/s 742 mmHg 62%
    01:00 +7°C° 0 mm 2 m/s 742 mmHg 63%
    02:00 +7°C° 0 mm 2 m/s 741 mmHg 65%
    03:00 +7°C° 0 mm 2 m/s 741 mmHg 67%
    04:00 +6°C° 0 mm 2 m/s 741 mmHg 69%
    05:00 +6°C° 0 mm 2 m/s 741 mmHg 71%
    06:00 +7°C° 0.1 mm 2 m/s 741 mmHg 69%
    07:00 +8°C° 0.1 mm 2 m/s 741 mmHg 68%
    08:00 +8°C° 0.1 mm 2 m/s 741 mmHg 66%
    09:00 +9°C° 0.1 mm 3 m/s 741 mmHg 61%
    10:00 +10°C° 0.1 mm 3 m/s 741 mmHg 56%
    11:00 +11°C° 0.1 mm 3 m/s 741 mmHg 52%
    12:00 +12°C° 0.1 mm 4 m/s 741 mmHg 51%
    13:00 +12°C° 0.1 mm 4 m/s 741 mmHg 50%
    14:00 +12°C° 0.1 mm 4 m/s 741 mmHg 49%
    15:00 +12°C° 0 mm 4 m/s 741 mmHg 48%
    16:00 +12°C° 0 mm 4 m/s 741 mmHg 48%
    17:00 +12°C° 0 mm 4 m/s 741 mmHg 48%
    18:00 +11°C° 0 mm 4 m/s 741 mmHg 52%
    19:00 +8°C° 0 mm 4 m/s 741 mmHg 55%
    20:00 +8°C° 0 mm 3 m/s 742 mmHg 59%
    21:00 +7°C° 0 mm 3 m/s 742 mmHg 60%
    22:00 +7°C° 0 mm 3 m/s 742 mmHg 62%
    23:00 +5°C° 0 mm 3 m/s 742 mmHg 63%

    22 Abril, Segunda-feira

    Tempo Temperatura Precipitação Vento Pressão Humidade
    00:00 +5°C° 0 mm 3 m/s 742 mmHg 64%
    01:00 +5°C° 0 mm 3 m/s 743 mmHg 65%
    02:00 +5°C° 0 mm 3 m/s 743 mmHg 66%
    03:00 +5°C° 0 mm 3 m/s 743 mmHg 68%
    04:00 +4°C° 0 mm 3 m/s 743 mmHg 70%
    05:00 +4°C° 0 mm 3 m/s 743 mmHg 72%
    06:00 +5°C° 0 mm 3 m/s 743 mmHg 66%
    07:00 +7°C° 0 mm 4 m/s 744 mmHg 60%
    08:00 +8°C° 0 mm 4 m/s 744 mmHg 55%
    09:00 +10°C° 0 mm 4 m/s 744 mmHg 50%
    10:00 +10°C° 0 mm 5 m/s 744 mmHg 46%
    11:00 +12°C° 0 mm 5 m/s 745 mmHg 42%
    12:00 +12°C° 0 mm 5 m/s 745 mmHg 43%
    13:00 +12°C° 0 mm 5 m/s 745 mmHg 44%
    14:00 +12°C° 0 mm 4 m/s 744 mmHg 45%
    15:00 +12°C° 0 mm 4 m/s 744 mmHg 45%
    16:00 +12°C° 0 mm 4 m/s 744 mmHg 46%
    17:00 +12°C° 0 mm 4 m/s 744 mmHg 47%
    18:00 +11°C° 0 mm 4 m/s 744 mmHg 52%
    19:00 +9°C° 0 mm 3 m/s 744 mmHg 57%
    20:00 +8°C° 0 mm 3 m/s 745 mmHg 62%
    21:00 +7°C° 0 mm 3 m/s 745 mmHg 63%
    22:00 +7°C° 0 mm 3 m/s 745 mmHg 64%
    23:00 +5°C° 0 mm 3 m/s 745 mmHg 66%

    23 Abril, Terça-feira

    Tempo Temperatura Precipitação Vento Pressão Humidade
    00:00 +5°C° 0 mm 3 m/s 745 mmHg 66%
    01:00 +5°C° 0 mm 3 m/s 745 mmHg 65%
    02:00 +5°C° 0 mm 3 m/s 745 mmHg 65%
    03:00 +4°C° 0 mm 3 m/s 745 mmHg 67%
    04:00 +4°C° 0 mm 3 m/s 745 mmHg 69%
    05:00 +3°C° 0 mm 3 m/s 745 mmHg 71%
    06:00 +5°C° 0 mm 4 m/s 746 mmHg 67%
    07:00 +7°C° 0 mm 4 m/s 746 mmHg 63%
    08:00 +8°C° 0 mm 4 m/s 746 mmHg 60%
    09:00 +10°C° 0 mm 5 m/s 746 mmHg 54%
    10:00 +12°C° 0 mm 5 m/s 746 mmHg 49%
    11:00 +13°C° 0 mm 6 m/s 746 mmHg 44%
    12:00 +14°C° 0 mm 6 m/s 746 mmHg 43%
    13:00 +14°C° 0 mm 6 m/s 746 mmHg 43%
    14:00 +14°C° 0 mm 6 m/s 745 mmHg 43%
    15:00 +14°C° 0 mm 6 m/s 745 mmHg 44%
    16:00 +14°C° 0 mm 6 m/s 745 mmHg 44%
    17:00 +14°C° 0 mm 5 m/s 745 mmHg 45%
    18:00 +13°C° 0 mm 5 m/s 745 mmHg 48%
    19:00 +12°C° 0 mm 5 m/s 745 mmHg 50%
    20:00 +11°C° 0 mm 4 m/s 745 mmHg 53%
    21:00 +11°C° 0 mm 4 m/s 745 mmHg 53%
    22:00 +10°C° 0 mm 4 m/s 745 mmHg 54%
    23:00 +10°C° 0 mm 4 m/s 745 mmHg 55%

    24 Abril, Quarta-feira

    Tempo Temperatura Precipitação Vento Pressão Humidade
    00:00 +8°C° 0 mm 4 m/s 745 mmHg 58%
    01:00 +7°C° 0 mm 4 m/s 745 mmHg 62%
    02:00 +6°C° 0 mm 4 m/s 745 mmHg 65%
    03:00 +6°C° 0 mm 4 m/s 745 mmHg 66%
    04:00 +5°C° 0 mm 4 m/s 745 mmHg 67%
    05:00 +5°C° 0 mm 4 m/s 745 mmHg 68%
    06:00 +6°C° 0 mm 5 m/s 745 mmHg 64%
    07:00 +8°C° 0 mm 5 m/s 746 mmHg 59%
    08:00 +9°C° 0 mm 6 m/s 746 mmHg 55%
    09:00 +10°C° 0 mm 6 m/s 746 mmHg 52%
    10:00 +11°C° 0 mm 6 m/s 746 mmHg 49%
    11:00 +14°C° 0 mm 7 m/s 746 mmHg 46%
    12:00 +14°C° 0 mm 6 m/s 746 mmHg 45%
    13:00 +15°C° 0 mm 6 m/s 745 mmHg 44%
    14:00 +15°C° 0 mm 6 m/s 745 mmHg 42%
    15:00 +15°C° 0 mm 6 m/s 745 mmHg 43%
    16:00 +15°C° 0 mm 6 m/s 745 mmHg 44%
    17:00 +15°C° 0 mm 5 m/s 745 mmHg 45%
    18:00 +14°C° 0 mm 5 m/s 745 mmHg 50%
    19:00 +12°C° 0 mm 4 m/s 745 mmHg 54%
    20:00 +11°C° 0 mm 3 m/s 744 mmHg 59%
    21:00 +11°C° 0 mm 3 m/s 745 mmHg 60%
    22:00 +11°C° 0 mm 3 m/s 745 mmHg 60%
    23:00 +10°C° 0 mm 3 m/s 745 mmHg 61%
    Mostrar mais